Simultaneous Nadir Overpasses (SNOs) Predictions

Prediction of SNOs between GOES-17 and METOP-C Satellite Orbit:

Table of predicted SNOs for the next 14.0 days since TLE Epoch: 10/11/2019
Index Date Time (GOES-17) GOES-17 Lat,Lon METOP-C Lat,Lon Distance(km) Time Diff (sec)
1 10/12/2019 06:41:17 -0.02,-137.20 -0.02,-137.29 10.62 80
2 10/14/2019 18:39:29 0.01,-137.19 -0.06,-136.86 37.69 80
3 10/16/2019 06:55:48 -0.01,-137.18 -0.99,-141.45 487.32 80
4 10/17/2019 06:35:09 -0.01,-137.17 0.13,-136.45 80.68 80
5 10/18/2019 18:54:01 0.01,-137.15 0.86,-141.02 441.55 80
6 10/19/2019 18:36:02 0.00,-137.13 -0.25,-136.03 125.81 80
7 10/21/2019 06:52:21 -0.00,-137.10 -0.78,-140.62 400.85 80
8 10/22/2019 06:34:22 -0.00,-137.08 0.34,-135.63 166.04 80
9 10/23/2019 18:50:33 -0.00,-137.05 0.73,-140.18 357.67 80
10 10/24/2019 18:32:33 -0.00,-137.03 -0.39,-135.19 209.02 80




NCC Satellite Simultaneous Nadir Overpasses (SNOs) Prediction Service
